VA7NIC-10 Weather Reports


time (UTC)temp
F
wind
direction
speed
knots
gust
knots
rain 1hr
in
rain 24hr
in
rain mn
in
humidity
%
barometer
mb
20260503195201 78 36 0.0 0.0 0.00 0.00 0.00 37 1012.6
20260503193701 78 37 0.0 0.0 0.00 0.00 0.00 39 1012.7
20260503192201 77 22 0.0 0.0 0.00 0.00 0.00 38 1012.8
20260503190702 75 20 0.0 0.0 0.00 0.00 0.00 42 1013.0
20260503185202 74 359 0.0 0.0 0.00 0.00 0.00 46 1013.1
20260503183702 73 359 0.0 0.0 0.00 0.00 0.00 47 1013.3
20260503182202 72 359 0.0 0.0 0.00 0.00 0.00 47 1013.4
20260503180701 70 38 0.0 0.0 0.00 0.00 0.00 49 1013.6
20260503175201 69 22 0.0 0.0 0.00 0.00 0.00 52 1013.7
20260503173701 67 359 0.0 0.0 0.00 0.00 0.00 52 1013.8
20260503172202 65 359 0.0 0.0 0.00 0.00 0.00 52 1014.0
20260503170701 64 337 0.0 0.0 0.00 0.00 0.00 56 1014.1
20260503150702 54 359 0.0 0.0 0.00 0.00 0.00 82 1015.0
20260503130701 53 359 0.0 0.0 0.00 0.00 0.00 78 1014.7
20260503110702 55 359 0.0 0.0 0.00 0.00 0.00 73 1014.7
20260503080702 59 359 0.0 0.0 0.00 0.00 0.00 62 1014.7
20260503072202 61 359 0.0 0.0 0.00 0.00 0.00 57 1014.7
20260503070702 61 359 0.0 0.0 0.00 0.00 0.00 56 1014.5
20260503053701 66 359 0.0 0.0 0.00 0.00 0.00 49 1014.2
20260503052201 68 359 0.0 0.0 0.00 0.00 0.00 46 1014.1
20260503050701 70 359 0.0 0.0 0.00 0.00 0.00 42 1014.0
20260503045201 70 359 0.0 0.0 0.00 0.00 0.00 39 1013.8
20260503043701 71 359 0.0 0.0 0.00 0.00 0.00 39 1013.8
20260503042201 71 359 0.0 0.0 0.00 0.00 0.00 40 1013.7
20260503040702 71 359 0.0 0.0 0.00 0.00 0.00 39 1013.5
20260503035202 72 359 0.0 0.0 0.00 0.00 0.00 40 1013.4
20260503033702 74 359 0.0 0.0 0.00 0.00 0.00 39 1013.3
20260503032202 75 359 0.0 0.0 0.00 0.00 0.00 36 1013.2
20260503030701 76 359 0.0 0.0 0.00 0.00 0.00 33 1013.1
20260503025202 77 359 0.0 0.0 0.00 0.00 0.00 31 1013.0
20260503023701 77 359 0.0 0.0 0.00 0.00 0.00 31 1013.0
20260503022201 77 359 0.0 0.0 0.00 0.00 0.00 30 1013.0
20260503020701 77 359 0.0 0.0 0.00 0.00 0.00 30 1013.1
20260503015201 78 359 0.0 0.0 0.00 0.00 0.00 29 1013.1
20260503013701 78 359 0.9 0.0 0.00 0.00 0.00 30 1013.1
20260503012201 78 359 0.0 4.3 0.00 0.00 0.00 29 1013.2
20260503010701 78 359 0.0 2.6 0.00 0.00 0.00 29 1013.3
20260503005201 78 359 0.0 4.3 0.00 0.00 0.00 29 1013.4
20260503003701 78 359 0.9 4.3 0.00 0.00 0.00 29 1013.4
20260503002202 78 359 0.0 0.0 0.00 0.00 0.00 30 1013.5
20260503000702 78 359 0.0 5.2 0.00 0.00 0.00 30 1013.6
20260502235202 78 359 0.0 0.0 0.00 0.00 0.00 31 1014.0
20260502233702 78 335 0.0 5.2 0.00 0.00 0.00 31 1013.9
20260502232202 78 350 0.0 5.2 0.00 0.00 0.00 31 1014.2
20260502230701 78 359 0.0 0.0 0.00 0.00 0.00 32 1014.5
20260502225201 78 359 1.7 2.6 0.00 0.00 0.00 31 1014.6
20260502223701 78 0 0.0 0.0 0.00 0.00 0.00 30 1014.8
20260502222201 78 359 4.3 8.7 0.00 0.00 0.00 30 1014.9
20260502220701 78 359 1.7 0.0 0.00 0.00 0.00 29 1014.9
20260502215201 77 359 0.0 0.0 0.00 0.00 0.00 29 1015.1
20260502213701 77 359 0.0 0.0 0.00 0.00 0.00 32 1015.1
20260502212201 78 359 0.0 0.0 0.00 0.00 0.00 33 1015.2
20260502210701 77 359 0.0 0.0 0.00 0.00 0.00 34 1015.3
20260502205201 78 359 0.0 0.0 0.00 0.00 0.00 35 1015.4
20260502203702 77 359 0.0 0.0 0.00 0.00 0.00 39 1015.7
20260502202202 77 316 0.0 0.0 0.00 0.00 0.00 40 1015.8
20260502200702 76 359 0.0 0.0 0.00 0.00 0.00 44 1016.1